Regional Weather Roundup
Issued by NWS

Home | Current Version | Previous Version | Graphics & Text | Print | Product List | Glossary On
Versions: 1 2 3 4 5 6 7 8 9 10 11 12 13 14 15 16 17 18 19 20 21 22 23 24 25 26 27 28 29 30 31 32 33 34 35 36 37 38 39 40 41 42 43 44 45 46 47 48 49 50
052
ASUS45 KTFX 230110
RWRMT
MONTANA REGIONAL WEATHER ROUNDUP
NATIONAL WEATHER SERVICE GREAT FALLS MT
700 PM MDT SUN APR 22 2018

NOTE: "FAIR" INDICATES FEW OR NO CLOUDS BELOW 12000 FEET WITH NO
SIGNIFICANT WEATHER AND/OR OBSTRUCTIONS TO VISIBILITY.

MTZ001>007-043-230200-
WEST OF THE DIVIDE

CITY           SKY/WX    TMP DP  RH WIND       PRES   REMARKS
KALISPELL      FAIR      55  19  24 N5        30.15R
MISSOULA       FAIR      56  22  26 N17G25    30.10R
BUTTE          LGT RAIN  50  31  48 MISG      30.09R
MULLAN PASS    FAIR      40  19  43 NW6       30.16R
ANACONDA         N/A     52  21  30 N9        30.09R
DEER LODGE       N/A     52  21  30 N8        30.11R
HAMILTON         N/A     55  25  30 MISG      30.08R
RONAN            N/A     55  18  22 N8G16     30.15S
$$

MTZ008-052>055-230200-
SOUTHWEST MONTANA

CITY           SKY/WX    TMP DP  RH WIND       PRES   REMARKS
BOZEMAN        CLOUDY    56  35  45 SW10G22   30.05R
DILLON         CLOUDY    51  37  58 N16       30.00R
ENNIS          CLOUDY    52  37  58 N14       30.07R
W YELLOWSTONE  PTSUNNY   55  27  33 VRB6      30.01F
THREE FORKS      N/A     57  26  30 NE6       30.04R
$$

MTZ009-010-012-014-046-048-049-054-230200-
EAST SLOPES AND CENTRAL MONTANA

CITY           SKY/WX    TMP DP  RH WIND       PRES   REMARKS
CUT BANK       FAIR      50  15  24 N16       30.16R
GREAT FALLS    FAIR      53  16  23 N16       30.11R
HELENA         CLOUDY    58  21  24 N10       30.07R
CHOTEAU          N/A     52  18  25 N14G21    30.15R
CONRAD           N/A     55  20  25 NW13      30.15
POWER          FAIR      53  17  24 N10       30.12R
ULM            FAIR      55  16  21 NE12      30.10R
WHITE SULPHUR    N/A     54  21  28 N9        30.06R
$$

MTZ011-013-016-021-045-047-050-051-230200-
NORTH CENTRAL MONTANA

CITY           SKY/WX    TMP DP  RH WIND       PRES   REMARKS
HAVRE          FAIR      57  22  25 NW12      30.13R
LEWISTOWN      FAIR      53  24  32 N10       30.10R
N BAR RANCH    CLOUDY    54  27  35 N10G16    30.12S
CHINOOK          N/A     57  25  28 NW10      30.12S
GEYSER         PTSUNNY   52  18  25 NE14      30.11R
GRASS RANGE    FAIR      56  26  31 NE14      30.07R
$$

MTZ017>020-022>027-061-062-230200-
NORTHEAST MONTANA

CITY           SKY/WX    TMP DP  RH WIND       PRES   REMARKS
GLASGOW        FAIR      62  25  24 VRB7      30.09S
GLENDIVE       FAIR      62  28  27 NW7       30.09S
JORDAN           N/A     63  25  23 CALM      30.08S
MALTA          SUNNY     59  28  31 N10       30.10R
SIDNEY         MOCLDY    63  25  23 NW10      30.09R
WOLF POINT     FAIR      64  27  24 NW9       30.10R
PLENTYWOOD       N/A     61  23  23 W12       30.09R
POPLAR           N/A     59  28  31 NW5       30.11R
$$

MTZ028>42-056>058-230200-
SOUTHCENTRAL AND SOUTHEAST MONTANA

CITY           SKY/WX    TMP DP  RH WIND       PRES   REMARKS
BAKER          FAIR      63  25  23 NE6       30.08F
BILLINGS       FAIR      62  29  28 NE10      30.03S
LIVINGSTON     CLOUDY    59  31  34 NE9       30.01S
MILES CITY     FAIR      63  27  25 NE8       30.07S
BIG TIMBER     PTSUNNY   59  30  33 E13       30.03F
FORSYTH          N/A     63  27  25 NE10      30.06S
HARLOWTON      PTSUNNY   54  27  34 N22       30.05S
LAUREL           N/A     63  27  25 NE14      30.03F
$$

REGIONAL REPORTS...DAKOTAS

CITY           SKY/WX    TMP DP  RH WIND       PRES   REMARKS
WILLISTON      FAIR      63  25  23 NW12      30.08R
MINOT          FAIR      62  27  26 SW6       30.07S
DICKINSON      FAIR      62  22  21 N6        30.07S
BEACH          FAIR      59  21  23 N5        30.12S
CROSBY         FAIR      61  28  29 NW9       30.07S
TIOGA          FAIR      61  25  25 W5        30.09R
BISMARCK       CLOUDY    63  39  41 SE13      30.07R
GRAND FORKS    FAIR      56  47  71 S10       30.10F
FARGO          FAIR      60  40  47 S16       30.15R
BUFFALO SD       N/A     64  33  31 NE10      30.00S
RAPID CITY     FAIR      61  38  42 SE8       30.06S
$$

REGIONAL REPORTS...WYOMING/IDAHO/WASHINGTON

CITY           SKY/WX    TMP DP  RH WIND       PRES   REMARKS
GILLETTE       FAIR      66  39  37 E9        30.02R
SHERIDAN       FAIR      65  40  39 NE13      30.01S
BUFFALO WY     FAIR      64  40  41 N15       30.04R
CODY           FAIR      63  29  27 N10       30.02S
YELLOWSTONE LA   N/A     43  27  53 CALM      30.12F
IDAHO FALLS    FAIR      69  28  21 W12G22    29.95F
SALMON         FAIR      60  31  33 N20       29.96R
BOISE          FAIR      62  26  25 NW17      30.01F
SPOKANE        PTSUNNY   54  20  26 N7        30.20S
$$

REGIONAL REPORTS...ALBERTA

CITY           SKY/WX    TMP DP  RH WIND       PRES   REMARKS
CALGARY        PTSUNNY   46  21  36 S10       30.20R
EDMONTON       SUNNY     48  23  37 NW16G22   30.16R
FORT MCMURRAY  CLOUDY    43  34  70 NW13      30.05R
HIGH LEVEL     MOSUNNY   46  25  42 N9        30.12S
LETHBRIDGE     PTSUNNY   50  18  27 NE9       30.19R
LLOYDMINSTER   PTSUNNY   43  34  70 NW17      30.09R
MEDICINE HAT   PTSUNNY   54  19  26 W16       30.17R
MILK RIVER       N/A     50  25  37 N15         N/A
PEACE RIVER    MOSUNNY   45  27  49 W10       30.18F
PINCHER CREEK  PTSUNNY   46  19  34 NE8       30.19R
WATERTON GATE    N/A     46  18  31 NE13        N/A
$$

REGIONAL REPORTS...SASKATCHEWAN

CITY           SKY/WX    TMP DP  RH WIND       PRES   REMARKS
CORONACH         N/A     55  21  26 NW10        N/A
ESTEVAN        PTCLDY    59  25  27 NW14G23   30.06R
MOOSE JAW        N/A     54  21  28 NW17G23     N/A
PRINCE ALBERT  PTSUNNY   46  36  66 NW18G28   29.99R
REGINA         PTCLDY    54  25  32 W23       30.09R
SASKATOON      PTSUNNY   46  34  61 W22G29    30.08R
SWIFT CURRENT  PTSUNNY   50  25  37 NW15G21   30.11R
VAL MARIE        N/A     55  23  28 NW13        N/A
$$




USA.gov is the U.S. government's official web portal to all federal, state and local government web resources and services.